Portada
METAR-TAF:

METAR-TAF

Aeroports :

Macas, Equador

latitud: 02-17-57-S, longitud: 078-07-15-W, altitud: 1052 m

Observació

L'informe es va fer fa 21 minuts, a les 23:00 UTC
Vent 6 kt del Nord
Temperatura 23°C
Humitat 83%
Pressió 1014 hPa
Visibilitat 10 km o més
Núvols disperses a una alçada de 3000 ft, Cumulonimbus.
Núvols disperses a una alçada de 10000 ft
tempesta, pluja

METAR: SEMC 242300Z 35006KT 9999 -TSRA SCT030CB SCT100 23/20 Q1014 RMK A2996

Hora: 18:21 (23:21 UTC)


TAF: manca

Observacions i pronòstics meteorològics de més de 4000 aeroports (METAR i TAF).

Les estacions disponibles són els punts grocs i vermells al mapa.

Posi el ratolí al punt desitjat per veure el nom de l'estació.

Feu clic per veure les observacions i els pronòstics meteorològics.

Per canviar el mapa: feu clic els botons verds amb una creu de color negre per apropar; al botó verd amb un guió per allunyar la imatge; o en les fletxes verdes per a mapes adjacents.


METAR-TAF: